Время (UTC), дата Ветер
(°,м/с) 
Видим.   Явления Облачность Т
(°С)
Тd
(°С)
f(%) Тe
(°С)
Pmin
(гПа)
dP
(гПа)
Po
(мм)
O2
(г/м3)
Тmin Tmax R s Состояние
почвы
00 01.07.12 290 (З) >10 км  слаб. ливневой дождь  10/8 840 м кучево-дожд., средняя 
[Cb cap|Ac und]
+12.9 +11.1 89 +16  1014.8  0.1  722  275           
03 01.07.12 320 (СЗ) >10 км  {ливн. осадки}  10/5 600 м кучево-дожд., средняя 
[Cb calv|Ac und]
+13.6 +12.1 91 +19  1014.7  -0.1  722  275          мокрая 
06 01.07.12 320 (СЗ) >10 км  слаб. ливневой дождь  10/5 300 м кучево-дожд., средняя 
[Cb cap|Ac und]
+14 +12.9 93 +20  1015.3  0.6  722  274  +11.5    0.9     
09 01.07.12 010 (С) >10 км  {ливн. осадки}  10/8 420 м кучево-дожд., средняя 
[Cb calv|Ac und]
+16.2 +13.3 83 +23  1014.9  0.6  722  272           
12 01.07.12 030 (СВ) >10 км  {ливн. осадки}  9/8 600 м кучево-дожд., средняя 
[Cb calv|Ac trans]
+16.5 +11.7 73 +20  1014.5  -0.3  722  272           
15 01.07.12 360 (С) >10 км    8/4 600 м кучево-дожд., средняя 
[Cb calv|Ac trans]
+17.6 +12.8 73 +24  1014.5  -0.3  722  271    +18.2       
18 01.07.12 020 (С) >10 км    9/5 600 м кучево-дожд., средняя 
[Cb calv|Ac trans]
+16.7 +13.5 81 +25  1016.5  -0.3  723  272    +18.2     
21 01.07.12 200 (Ю) >10 км  слаб. ливневой дождь  10/6 900 м кучево-дожд., средняя 
[Cb cap|Ac und]
+15 +13.2 89 +23  1016.7  0.1  723  274           
00 02.07.12 260 (З) >10 км  {ливн. осадки}  10/5 600 м кучево-дожд., средняя 
[Cb calv|Ac trans]
+14.9 +11.4 80 +20  1015.6  -1.1  722  274           
03 02.07.12 260 (З) >10 км    9/4 1000 м кучево-дожд., средняя 
[Cb calv|Ac trans]
+15.6 +12.9 84 +21  1015.9  0.4  723  273           
06 02.07.12 260 (З) >10 км  слаб. ливневой дождь  10/6 1000 м кучево-дожд., средняя 
[Cb cap|Ac und]
+16.3 +14.1 87 +25  1016.6  0.8  723  272  +14.5    0.0     
09 02.07.12 330 (СЗ) 10 км  слаб. ливневой дождь  10/6 800 м кучево-дожд., средняя 
[Cb cap|Ac und]
+16.3 +14.5 89 +26  1017  0.4  724  272           
12 02.07.12 030 (СВ) >10 км  {ливн. осадки}  9/6 570 м кучево-дожд., средняя 
[Cb calv|Ac trans]
+18.6 +14.9 79 +28  1016.7  0.1  724  270           
15 02.07.12 290 (З) >10 км    8/3 600 м кучево-дожд., средняя 
[Cb calv|Ac trans]
+18.9 +14.2 74 +28  1015.9  -0.8  723  270    +19.7       
18 02.07.12 250 (З) >10 км    6/0 средняя 
[Ac trans]
+14.8 +13.2 90 +22  1016.9  0.3  723  274    +19.7     
21 02.07.12 310 (СЗ) >10 км    5/0 средняя 
[Ac trans]
+16.4 +11.9 75 +22  1016.1  -0.6  723  272           
00 03.07.12 310 (СЗ) >10 км    5/0 средняя 
[Ac trans]
+15.8 +10.9 73 +20  1014.9  -1.2  722  273           
03 03.07.12 310 (СЗ) >10 км    5/0 верхняя 
[Ci fib]
+17.5 +12.2 71 +23  1013.5  -1  721  271           
06 03.07.12 270 (З) >10 км    8/0 средняя, верхняя 
[Ac trans|Ci]
+22.9 +13.6 56 +30  1012  -0.5  721  265  +13.8         
09 03.07.12 290 (З) >10 км    8/6 1000 м кучево-дожд., средняя, верхняя 
[Cb calv|Ac trans|Ci]
+21.6 +13.3 59 +28  1011.4  -0.8  720  266           
12 03.07.12 170 (Ю) >10 км    10/8 1200 м кучево-дожд., средняя, верхняя 
[Cb calv|Ac trans|Ci]
+25.6 +11.2 41 +29  1009.6  -1  719  263           
15 03.07.12 010 (С) >10 км  в посл. час гроза{ливн. осадки}  9/4 1000 м кучево-дожд., средняя, верхняя 
[Cb cap|Ac cuf|Ci sp]
+20.2 +14.8 71 +30  1010.4  -1  719  267    +26.3       
18 03.07.12 120 (ЮВ) >10 км  {гроза, ливн. осадки}  8/3 1000 м кучево-дожд., средняя 
[Cb calv|Ac trans]
+15.4 +14.3 93 +25  1012  0.7  720  272    +26.3  15     
21 03.07.12 150 (ЮВ) >10 км    8/4 1000 м средняя 
[Sc diur, vesp|Ac cuf]
+15.4 +14.2 93 +25  1010.6  -1.3  719  271           
00 04.07.12 тихо ()   >10 км    4/0 средняя 
[Ac trans]
+14.3 +13.3 94 +21  1010.4  -0.4  719  272           
03 04.07.12 180 (Ю) >10 км    4/0 средняя, верхняя 
[Ac trans|Ci fib]
+16.4 +14.3 87 +26  1010  719  270           
06 04.07.12 060 (СВ) >10 км    5/1 600 м средняя, верхняя 
[Cu hum|Ac trans|Ci fib]
+22.4 +13.6 57 +30  1008.4  -0.6  718  265  +13.2         
09 04.07.12 090 (В) >10 км    8/5 600 м кучево-дожд., средняя 
[Cb calv|Ac trans]
+23.6 +14.7 57 +33  1007.4  -0.7  718  263           
12 04.07.12 040 (СВ) >10 км  гроза, ливневой дождь  8/5 600 м кучево-дожд., средняя 
[Cb cap|Ac trans]
+22.7 +14.9 61 +32  1006.5  -1.1  717  264           
15 04.07.12 270 (З) 10 км  гроза, ливневой дождь  10/8 240 м кучево-дожд., средняя 
[Cb cap|Ac und]
+16.8 +16.2 96 +29  1009.7  2.1  718  269    +24.6       
18 04.07.12 230 (ЮЗ) >10 км  {гроза, ливн. осадки}  8/4 600 м кучево-дожд., средняя 
[Cb calv|Ac trans]
+16 +14.2 89 +24  1008.7  -1.2  718  270    +24.6  33     
21 04.07.12 310 (СЗ) >10 км    10/5 1000 м кучево-дожд., средняя 
[Cb calv|Ac und]
+17 +15.2 89 +27  1009.1  0.6  718  269           
00 05.07.12 320 (СЗ) >10 км  слаб. ливневой дождь  10/6 900 м кучево-дожд., средняя 
[Cb cap|Ac und]
+16.7 +15.3 91 +27  1008.2  0.6  717  269           
03 05.07.12 320 (СЗ) 10 км  слаб. ливневой дождь  10/6 450 м кучево-дожд., средняя 
[Cb cap|Ac und]
+16.2 +15.4 95 +27  1008.5  0.3  718  270           
06 05.07.12 290 (З) 10 км  слаб. ливневой дождь  10/8 200 м кучево-дожд., средняя 
[Cb cap|Ac und]
+16.4 +15.6 95 +27  1007.8  -0.6  717  269  +15.9    13     
09 05.07.12 270 (З) >10 км  слаб. ливневой дождь  10/6 180 м кучево-дожд., средняя 
[Cb cap|Ac und]
+17.5 +16.1 91 +29  1008.3  0.7  718  268           
12 05.07.12 290 (З) >10 км  {ливн. осадки}  9/5 600 м кучево-дожд., средняя 
[Cb calv|Ac trans]
+19.5 +16.6 83 +33  1007.8  -0.2  717  266           
15 05.07.12 270 (З) >10 км    8/3 600 м кучево-дожд., верхняя 
[Cb calv|Ci fib]
+19.3 +15.9 81 +32  1008.4  0.5  718  267    +20.7       
18 05.07.12 240 (ЮЗ) >10 км    6/1 600 м кучево-дожд., верхняя 
[Cb calv|Ci fib]
+16.5 +15.1 91 +27  1009.8  0.8  718  270    +20.7     
21 05.07.12 220 (ЮЗ) >10 км    3/0 верхняя 
[Ci fib]
+16.3 +14.7 90 +26  1009.9  0.1  719  270           
00 06.07.12 240 (ЮЗ) >10 км    ясно 
+15.7 +14.2 91 +24  1009.5  0.1  718  271           
03 06.07.12 190 (Ю) >10 км    3/0 верхняя 
[Ci fib]
+17.6 +15.4 87 +30  1009.4  0.3  718  269           
06 06.07.12 140 (ЮВ) >10 км    6/3 600 м средняя 
[Cu hum|Ac trans]
+23 +15.5 63 +34  1008.9  0.5  719  264  +15.1         
09 06.07.12 150 (ЮВ) >10 км    8/4 600 м средняя 
[Cu med, cong|Ac trans]
+24.6 +15 55 +34  1008.1  -0.5  718  262           
12 06.07.12 070 (В) >10 км  в посл. час ливневой дождь  10/5 600 м кучево-дожд., средняя 
[Cb calv|Ac und]
+21.8 +17.3 76 +36  1009.1  -0.5  719  264           
15 06.07.12 050 (СВ) >10 км  {ливн. осадки}  8/4 600 м кучево-дожд., средняя 
[Cb calv|Ac trans]
+21.9 +16.7 72 +35  1008.8  -0.3  718  264    +25.3       
18 06.07.12 300 (СЗ) >10 км  {ливн. осадки}  8/4 600 м кучево-дожд., средняя 
[Cb calv|Ac trans]
+19.1 +17.3 89 +35  1009.8  0.5  719  267    +25.3  0.0     
21 06.07.12 310 (СЗ) >10 км    8/3 600 м кучево-дожд., средняя 
[Cb calv|Ac trans]
+19.2 +16 82 +32  1009.2  -0.6  718  267           
00 07.07.12 330 (СЗ) >10 км    3/0 средняя 
[Ac trans]
+17.3 +15.6 90 +29  1008.9  -0.7  718  269           
03 07.07.12 330 (СЗ) >10 км    4/0 средняя 
[Ac trans]
+18.5 +15.4 82 +30  1008.5  0.1  718  268           
06 07.07.12 350 (С) >10 км    3/0 верхняя 
[Ci fib]
+23.2 +16.1 64 +35  1007.1  -0.5  717  263  +16.9         
09 07.07.12 340 (С) >10 км    6/4 600 м верхняя 
[Cu hum|Ci fib]
+25.6 +16.9 59 +39  1006.4  -0.3  717  260           
12 07.07.12 350 (С) >10 км    8/5 600 м верхняя 
[Cu hum|Ci fib]
+26 +17 58 +40  1005.9  -0.4  717  260           
15 07.07.12 340 (С) >10 км    4/3 600 м верхняя 
[Cu hum|Ci fib]
+25.9 +18 62 +42  1004.7  -1.1  716  259    +27       
18 07.07.12 320 (СЗ) >10 км    6/3 1000 м кучево-дожд., верхняя 
[Cb calv|Ci fib]
+22.9 +18.4 76 +40  1006.1  0.8  717  262    +27       
21 07.07.12 360 (С) >10 км  гроза без осадков  6/3 600 м кучево-дожд., верхняя 
[Cb calv|Ci fib]
+21.4 +18.3 82 +38  1005.1  -1.1  716  263           
00 08.07.12 330 (СЗ) >10 км  {гроза}  10/3 600 м кучево-дожд., верхняя 
[Cb calv|Ci fib]
+19.6 +16 80 +33  1005.8  0.3  716  266           
03 08.07.12 160 (Ю) >10 км    8/3 1000 м кучево-дожд., верхняя 
[Cb calv|Ci fib]
+20.6 +16.2 76 +33  1005.5  0.1  716  265           
06 08.07.12 070 (В) >10 км    6/1 600 м верхняя 
[Cu hum|Ci fib]
+23.1 +16.7 67 +36  1005.8  0.7  716  262  +18.6         
09 08.07.12 060 (СВ) >10 км    8/0 средняя 
[Ac trans]
+26.7 +15.7 51 +38  1005.4  0.2  717  260           
12 08.07.12 060 (СВ) >10 км    4/1 600 м средняя 
[Cu hum|Ac trans]
+28.8 +13.9 40 +37  1004.4  -0.7  716  258           
15 08.07.12 070 (В) >10 км    8/3 1000 м средняя 
[Cu hum|Ac trans]
+27.1 +14.8 47 +37  1004.6  716  259    +29.1       
18 08.07.12 050 (СВ) >10 км    10/5 1000 м кучево-дожд., средняя 
[Cb calv|Ac und]
+24.5 +15.2 56 +35  1005.7  0.6  717  262    +29.1       
21 08.07.12 100 (В) >10 км  гроза без осадков  8/3 1000 м кучево-дожд., средняя 
[Cb calv|Ac trans]
+20.2 +15.8 76 +32  1007.3  0.9  717  266           
00 09.07.12 060 (СВ) >10 км  {гроза}  10/5 1000 м кучево-дожд., средняя 
[Cb calv|Ac und]
+20 +15.6 76 +31  1007  -0.3  717  266           
03 09.07.12 040 (СВ) >10 км    3/1 1000 м кучево-дожд., средняя 
[Cb calv|Ac trans]
+19.1 +15.8 81 +31  1007.8  0.6  717  267           
06 09.07.12 110 (В) >10 км    4/4 600 м 
[Cu med, cong]
+23.9 +15.9 61 +35  1007.8  0.7  718  263  +18.8         
09 09.07.12 100 (В) >10 км    6/6 720 м кучево-дожд. 
[Cb calv]
+26 +14.3 48 +35  1007.6  0.2  718  261           
12 09.07.12 020 (С) >10 км  гроза без осадков  6/6 800 м кучево-дожд. 
[Cb calv]
+22 +14.4 62 +31  1008.2  0.1  718  265           
15 09.07.12 120 (ЮВ) >10 км  {гроза}  8/5 600 м кучево-дожд., средняя 
[Cb calv|Ac trans]
+20.3 +12.9 62 +27  1008.7  -0.1  718  267    +27       
18 09.07.12 260 (З) >10 км  {гроза}  5/0 средняя 
[Ac trans]
+19 +11.5 62 +24  1009.1  -0.1  718  268    +27       
21 09.07.12 330 (СЗ) >10 км    4/0 средняя 
[Ac trans]
+18.8 +11.3 62 +23  1008.1  -1  718  268           
00 10.07.12 320 (СЗ) >10 км    4/0 средняя 
[Ac trans]
+18.7 +11.4 63 +23  1008.2  0.1  718  268           
03 10.07.12 330 (СЗ) >10 км    8/3 600 м кучево-дожд., средняя 
[Cb calv|Ac trans]
+19.1 +12.7 66 +26  1008.4  0.3  718  268           
06 10.07.12 150 (ЮВ) >10 км    6/1 600 м средняя 
[Cu hum|Ac trans]
+24 +15.6 59 +35  1007.8  0.3  718  263  +16.6         
09 10.07.12 120 (ЮВ) >10 км    9/3 1000 м кучево-дожд., средняя, верхняя 
[Cb calv|Ac trans|Ci fib]
+23.6 +15.8 62 +35  1008.5  0.6  719  263           
12 10.07.12 300 (СЗ) >10 км  в посл. час гроза  9/3 1000 м кучево-дожд., средняя 
[Cb calv|Ac trans]
+24.6 +12.8 48 +31  1008.1  -0.2  718  263           
15 10.07.12 290 (З) >10 км    8/3 1000 м средняя, верхняя 
[Cu hum|Ac trans|Ci fib]
+24.2 +12.4 48 +30  1008.8  0.5  719  264    +26       
18 10.07.12 220 (ЮЗ) >10 км  в посл. час гроза  9/5 1230 м кучево-дожд., средняя 
[Cb cap|Ac lent]
+20.3 +14.2 68 +29  1011.1  1.6  720  267    +26       
21 10.07.12 280 (З) >10 км  в посл. час ливневой дождь{гроза}  10/4 1000 м кучево-дожд., средняя 
[Cb calv|Ac und]
+18 +15 83 +29  1011.6  0.1  720  269           
00 11.07.12 290 (З) >10 км  {гроза, ливн. осадки}  10/5 1000 м кучево-дожд., средняя 
[Cb cap|Ac und]
+17.9 +13.9 77 +27  1011.4  -0.2  720  269           
03 11.07.12 160 (Ю) >10 км    8/4 1000 м средняя 
[Sc|Ac trans]
+18.4 +13.5 73 +27  1012.2  0.9  720  269           
06 11.07.12 270 (З) >10 км    4/0 средняя 
[Ac trans]
+21.9 +15 65 +32  1011.6  720  266  +16.7    0.0     
09 11.07.12 310 (СЗ) >10 км    6/4 600 м средняя 
[Cu hum|Ac trans]
+25.1 +13.4 48 +32  1010.8  -0.3  720  263           
12 11.07.12 260 (З) >10 км    4/3 600 м кучево-дожд., верхняя 
[Cb calv|Ci fib]
+26.8 +13.2 43 +34  1009.8  -0.6  720  261           
15 11.07.12 300 (СЗ) >10 км    3/3 600 м верхняя 
[Cu hum|Ci fib]
+26.2 +12.3 42 +31  1009.6  -0.3  719  262    +27.5       
18 11.07.12 310 (СЗ) >10 км    6/4 600 м кучево-дожд., средняя 
[Cb calv|Ac trans]
+21.6 +17.2 76 +36  1011.1  0.7  720  265    +27.5       
21 11.07.12 260 (З) >10 км    3/3 600 м кучево-дожд., средняя 
[Cb calv|Ac trans]
+19.6 +18.2 92 +36  1011.2  -0.2  720  266           
00 12.07.12 280 (З) >10 км    3/0 средняя 
[Ac trans]
+18.8 +17.7 93 +34  1010.8  -0.5  720  267           
03 12.07.12 290 (З) 4000 м  дымка  10/8 200 м средняя 
[St|Ac und]
+19.5 +18.3 93 +36  1010.9  0.2  720  266          замёрзшая 
06 12.07.12 260 (З) 4000 м  дымка{ливн. осадки}  10/8 210 м кучево-дожд., средняя 
[Cb calv|Ac und]
+20.3 +18.9 92 +38  1011.2  0.4  720  265  +18.5         
09 12.07.12 280 (З) >10 км    9/6 600 м кучево-дожд., средняя 
[Cb calv|Ac trans]
+24.4 +18.5 70 +41  1010.1  -0.4  720  262           
12 12.07.12 270 (З) >10 км    8/5 600 м кучево-дожд., средняя 
[Cb calv|Ac trans]
+24.2 +18.3 70 +41  1009.4  -0.6  719  262           
15 12.07.12 290 (З) >10 км  в посл. час ливневой дождь  5/3 600 м кучево-дожд., средняя 
[Cb calv|Ac trans]
+24.1 +19.5 76 +43  1009  -0.4  719  261    +25.6       
18 12.07.12 290 (З) >10 км  {ливн. осадки}  3/0 средняя 
[Ac trans]
+21.1 +18.3 84 +37  1010.8  1.2  720  265    +25.6       
21 12.07.12 290 (З) >10 км    3/0 средняя 
[Ac trans]
+20.7 +17.2 80 +35  1011.1  0.2  720  266           
00 13.07.12 280 (З) >10 км    ясно 
+18.4 +15.7 84 +30  1011  -0.5  720  268           
03 13.07.12 290 (З) >10 км    ясно 
+20.7 +15.7 73 +32  1011.3  0.6  720  266           
06 13.07.12 290 (З) >10 км    1/1 600 м 
[Cu hum]
+24.8 +17.5 64 +39  1010.6  0.1  720  262  +18.1         
09 13.07.12 280 (З) >10 км    3/3 600 м 
[Cu hum]
+27.7 +15.5 47 +38  1010.4  0.2  720  260           
12 13.07.12 260 (З) >10 км    3/3 600 м кучево-дожд. 
[Cb calv]
+28.9 +16 46 +41  1009.3  -0.8  720  259           
15 13.07.12 270 (З) >10 км    5/5 600 м кучево-дожд. 
[Cb calv]
+26.1 +16.6 56 +39  1009.7  0.1  720  261    +29       
18 13.07.12 300 (СЗ) >10 км    4/1 600 м кучево-дожд., средняя 
[Cb calv|Ac trans]
+23.9 +16.4 63 +36  1011.1  720  263    +29       
21 13.07.12 330 (СЗ) >10 км    3/0 средняя 
[Ac trans]
+22.9 +16.2 66 +35  1011.1  -0.2  720  264           
00 14.07.12 330 (СЗ) >10 км    3/0 средняя 
[Ac trans]
+21.5 +16 71 +33  1010.9  -0.4  720  265           
03 14.07.12 330 (СЗ) >10 км    6/5 1000 м средняя 
[Sc|Ac trans]
+21 +15.9 73 +32  1011.5  0.4  720  266           
06 14.07.12 190 (Ю) >10 км    4/1 600 м средняя 
[Cu med, cong|Ac cast]
+24.8 +17.5 64 +39  1011.2  0.4  721  262  +20.6         
09 14.07.12 330 (СЗ) >10 км  слаб. ливневой дождь, в посл. час гроза  9/8 1080 м кучево-дожд., верхняя 
[Cb cap|Ci ing]
+25 +19.2 70 +43  1010.7  -0.4  720  261           
12 14.07.12 340 (С) >10 км  {гроза, ливн. осадки}  6/4 1000 м кучево-дожд., верхняя 
[Cb cap|Ci ing]
+28.2 +17.4 52 +43  1009.4  -0.7  720  259           
15 14.07.12 210 (ЮЗ) >10 км  {гроза, ливн. осадки}  8/4 1000 м кучево-дожд., верхняя 
[Cb cap|Ci ing]
+27.9 +17.3 53 +42  1009.9  0.3  720  259    +28.6       
18 14.07.12 270 (З) >10 км  {гроза, ливн. осадки}  8/3 1000 м кучево-дожд., средняя 
[Cb calv|Ac trans]
+21.4 +17.5 78 +36  1012  0.3  721  265    +28.6     
21 14.07.12 270 (З) >10 км  зарница  4/3 1000 м кучево-дожд., средняя 
[Cb cap|Ac cuf]
+19.9 +16.8 82 +34  1012.9  0.5  721  267           
00 15.07.12 290 (З) >10 км  зарница  4/3 1000 м кучево-дожд., средняя 
[Cb calv|Ac trans]
+21.9 +16.9 73 +35  1012.3  -0.2  721  265           
03 15.07.12 280 (З) >10 км    3/0 верхняя 
[Ci fib]
+21.6 +17.8 79 +37  1013.2  0.9  722  265           
06 15.07.12 230 (ЮЗ) >10 км    ясно 
+26.7 +18.7 62 +44  1012.9  0.5  722  261  +18.7         
09 15.07.12 330 (СЗ) >10 км    6/6 900 м кучево-дожд. 
[Cb calv]
+27.9 +17.8 54 +43  1012.7  722  260           
12 15.07.12 130 (ЮВ) >10 км    8/8 900 м кучево-дожд. 
[Cb calv]
+28.5 +16.7 49 +41  1011.8  -0.8  722  260           
15 15.07.12 тихо ()   >10 км    3/3 600 м 
[Cu med, cong]
+30.1 +17 45 +44  1011.2  -0.3  721  258    +31       
18 15.07.12 320 (СЗ) >10 км    3/0 средняя 
[Ac trans]
+25 +15.6 56 +36  1012.6  0.5  722  263    +31       
21 15.07.12 330 (СЗ) >10 км    ясно 
+24.6 +14.3 53 +33  1012.6  0.1  722  264           
00 16.07.12 260 (З) >10 км    ясно 
+22.2 +14.4 61 +31  1012.4  -0.6  721  266           
03 16.07.12 360 (С) >10 км    ясно 
+22.2 +14.4 61 +31  1012.4  0.1  721  266           
06 16.07.12 110 (В) >10 км    ясно 
+28.7 +16 46 +40  1011.5  0.2  721  260  +20.2         
09 16.07.12 100 (В) >10 км    3/3 600 м 
[Cu hum]
+30.8 +14.5 37 +40  1010.4  -0.8  721  258           
12 16.07.12 160 (Ю) >10 км    3/3 600 м 
[Cu hum]
+32.3 +13.9 33 +40  1009  -1.1  720  257           
15 16.07.12 140 (ЮВ) >10 км    3/3 600 м 
[Cu hum]
+31.3 +14.6 36 +40  1008.4  -0.7  719  257    +32.9       
18 16.07.12 230 (ЮЗ) >10 км    1/0 средняя 
[Ac trans]
+24.4 +16 59 +36  1009.5  719  263    +32.9       
21 16.07.12 230 (ЮЗ) >10 км    ясно 
+23.7 +15.5 60 +34  1009  -0.7  719  263           
00 17.07.12 180 (Ю) >10 км    ясно 
+23.4 +14.6 58 +33  1008.1  -0.9  718  263           
03 17.07.12 190 (Ю) >10 км    ясно 
+23.9 +16.8 64 +37  1007.6  -0.3  718  262           
06 17.07.12 200 (Ю) >10 км    ясно 
+27.3 +18.1 57 +43  1007.1  718  259  +18.3         
09 17.07.12 310 (СЗ) >10 км    3/3 600 м 
[Cu hum]
+29.5 +18.5 52 +46  1006.5  -0.2  718  257           
12 17.07.12 290 (З) >10 км    4/4 600 м 
[Cu hum]
+31.1 +15 38 +41  1006.6  0.2  718  257           
15 17.07.12 330 (СЗ) >10 км    5/3 1000 м верхняя 
[Cu hum|Ci fib]
+26.7 +14.2 46 +35  1008.7  1.3  719  261    +31.4       
18 17.07.12 280 (З) >10 км    1/0 средняя 
[Ac trans]
+21.6 +15.7 69 +33  1011.7  2.1  721  266    +31.4       
21 17.07.12 300 (СЗ) >10 км    3/0 средняя 
[Ac trans]
+21 +16.5 75 +34  1012.7  0.8  721  266           
00 18.07.12 280 (З) >10 км    3/0 средняя 
[Ac trans]
+17.6 +15.8 89 +29  1014  0.7  722  270           
03 18.07.12 320 (СЗ) >10 км    3/0 средняя 
[Ac trans]
+18.4 +16 86 +31  1014.5  0.6  722  269           
06 18.07.12 350 (С) >10 км    3/3 600 м 
[Cu hum]
+23 +13 53 +29  1014.1  0.3  722  266          замёрзшая 
09 18.07.12 310 (СЗ) >10 км    5/5 600 м 
[Cu hum]
+25.8 +11.3 40 +30  1013.3  -0.4  722  264           
12 18.07.12 190 (Ю) >10 км    8/8 1000 м 
[Cu hum]
+27.2 +12.5 40 +33  1012.3  -0.6  722  262           
15 18.07.12 160 (Ю) >10 км    8/3 1000 м кучево-дожд., средняя 
[Cb calv|Ac trans]
+24.2 +15 56 +34  1012.2  -0.6  721  264    +27.6       
18 18.07.12 030 (СВ) >10 км  гроза без осадков{ливн. осадки}  10/4 1000 м кучево-дожд., средняя 
[Cb cap|Ac und]
+24.2 +15 56 +34  1012.2  0.8  722  264    +27.6       
21 18.07.12 060 (СВ) >10 км  гроза без осадков{ливн. осадки}  8/4 1000 м кучево-дожд., средняя 
[Cb calv|Ac trans]
+19.1 +15.5 80 +31  1014.1  0.2  722  268           
00 19.07.12 240 (ЮЗ) 4000 м  зарница{гроза, ливн. осадки}  4/3 600 м кучево-дожд., средняя 
[Cb cap|Ac cuf]
+15.8 +15.2 96 +27  1014.4  -0.3  722  272           
03 19.07.12 140 (ЮВ) 4000 м  дымка{туман}  4/3 300 м средняя 
[Sc diur, vesp|Ac cuf]
+16.5 +15.9 96 +28  1015.6  1.3  723  271           
06 19.07.12 290 (З) >10 км  {туман}  ясно 
+23.5 +12.7 51 +29  1015.2  0.7  723  266  +15.8    11     
09 19.07.12 300 (СЗ) >10 км    6/6 600 м 
[Cu hum]
+25.1 +13 47 +31  1014.9  723  264           
12 19.07.12 310 (СЗ) >10 км    8/8 900 м 
[Cu hum]
+26.8 +8 30 +27  1014.3  -0.4  723  264           
15 19.07.12 310 (СЗ) >10 км    1/1 1000 м 
[Cu hum]
+26 +7.2 30 +26  1014  -0.4  723  265    +26.9       
18 19.07.12 320 (СЗ) >10 км    3/0 средняя 
[Ac trans]
+21.3 +10 48 +23  1015.9  1.1  723  269    +26.9       
21 19.07.12 360 (С) >10 км    3/0 средняя 
[Ac trans]
+20.6 +9.4 49 +22  1016.2  0.1  723  269           
00 20.07.12 тихо ()   >10 км    ясно 
+17.3 +10.6 65 +20  1016.9  0.1  724  272           
03 20.07.12 030 (СВ) >10 км    4/0 средняя 
[Ac trans]
+20.2 +10.3 53 +22  1017.1  0.7  724  270           
06 20.07.12 120 (ЮВ) >10 км    1/0 верхняя 
[Ci fib]
+23.8 +11.3 45 +27  1016.5  0.1  724  266  +16.7         
09 20.07.12 140 (ЮВ) >10 км    3/3 600 м 
[Cu hum]
+27.8 +12.2 38 +33  1015.3  -0.5  724  262           
12 20.07.12 140 (ЮВ) >10 км    5/5 600 м 
[Cu hum]
+28.4 +13.6 40 +36  1013.9  -1.1  723  261           
15 20.07.12 140 (ЮВ) >10 км    4/4 600 м 
[Cu hum]
+27.6 +14.5 45 +36  1013.3  -0.8  722  261    +29.7       
18 20.07.12 150 (ЮВ) >10 км    1/0 средняя 
[Ac trans]
+22.7 +14.2 59 +31  1014.5  0.4  723  266    +29.7       
21 20.07.12 130 (ЮВ) >10 км    ясно 
+20.1 +13.8 67 +28  1014.9  0.4  723  268           
00 21.07.12 160 (Ю) >10 км    ясно 
+18.7 +13.3 71 +27  1015.1  0.1  722  270           
03 21.07.12 110 (В) >10 км    ясно 
+20.5 +15.1 71 +30  1015.2  0.5  723  268           
06 21.07.12 120 (ЮВ) >10 км    ясно 
+24.8 +13.8 50 +32  1014.8  0.3  723  264  +17.3         
09 21.07.12 110 (В) >10 км    ясно 
+29 +11.4 34 +33  1013.8  -0.3  723  261           
12 21.07.12 100 (В) >10 км    1/1 600 м 
[Cu hum]
+29.8 +10.6 30 +33  1013  -0.6  722  261           
15 21.07.12 110 (В) >10 км    1/1 600 м 
[Cu hum]
+28.6 +11 34 +32  1013  -0.2  722  261    +30.1       
18 21.07.12 080 (В) >10 км    ясно 
+24.6 +11.7 44 +29  1014.4  0.6  723  265    +30.1       
21 21.07.12 110 (В) >10 км    ясно 
+21.2 +11.7 55 +25  1014.4  -0.2  723  268           
00 22.07.12 120 (ЮВ) >10 км    ясно 
+18.4 +13.1 71 +25  1014.3  -0.9  722  270           
03 22.07.12 100 (В) >10 км    ясно 
+18.7 +15.9 84 +30  1014.5  0.3  722  269           
06 22.07.12 110 (В) >10 км    ясно 
+25.2 +12.7 46 +31  1013.5  722  264  +16.6         
09 22.07.12 110 (В) 11  >10 км    ясно 
+29.3 +11 32 +33  1012.7  0.1  722  261           
12 22.07.12 100 (В) 11{19}  >10 км    ясно 
+31.3 +11.9 30 +36  1011.1  -1.1  721  258           
15 22.07.12 100 (В) 10  >10 км    ясно 
+30.5 +11.1 30 +34  1010.7  -0.5  721  259    +31.6       
18 22.07.12 100 (В) >10 км    ясно 
+26.4 +12.2 41 +31  1012.6  1.1  722  263    +31.6       
21 22.07.12 090 (В) >10 км    ясно 
+22.4 +13.9 59 +30  1013.1  -0.2  722  266           
00 23.07.12 100 (В) >10 км    ясно 
+19.6 +13.9 70 +28  1013.2  -0.4  721  268           
03 23.07.12 090 (В) >10 км    ясно 
+20.5 +16.3 77 +33  1013.6  0.6  722  267           
06 23.07.12 110 (В) >10 км    3/3 600 м 
[Cu hum]
+25.8 +18.8 65 +43  1013.2  0.6  722  261  +18.3         
09 23.07.12 120 (ЮВ) 12  >10 км    ясно 
+31.3 +12 31 +36  1012  -0.4  722  259           
12 23.07.12 110 (В) 10  >10 км    ясно 
+33.7 +8.6 21 +34  1010.5  -0.4  721  257           
15 23.07.12 120 (ЮВ) >10 км    ясно 
+32.3 +8.4 23 +32  1010.4  -0.3  721  258    +33.8       
18 23.07.12 100 (В) >10 км    ясно 
+26.4 +9.6 35 +28  1012.1  0.7  721  263    +33.8       
21 23.07.12 060 (СВ) >10 км    ясно 
+23.1 +10.2 44 +25  1012.6  0.1  721  266           
00 24.07.12 080 (В) >10 км    ясно 
+19.1 +13.3 69 +27  1012.8  -0.4  721  269           
03 24.07.12 070 (В) >10 км    ясно 
+20.2 +15.4 74 +31  1013.9  1.3  722  268           
06 24.07.12 100 (В) >10 км    ясно 
+26.9 +15.4 49 +37  1013.9  0.4  722  262  +17.9         
09 24.07.12 090 (В) >10 км    ясно 
+32.3 +10 25 +34  1012.4  0.1  722  258           
12 24.07.12 110 (В) >10 км    ясно 
+34.2 +7.7 20 +34  1011.5  -0.6  722  257           
15 24.07.12 100 (В) >10 км    ясно 
+33 +8.9 23 +33  1011.7  0.1  722  258    +34.4       
18 24.07.12 050 (СВ) >10 км    ясно 
+28.2 +7.4 27 +28  1013.6  723  263    +34.4       
21 24.07.12 тихо ()   >10 км    ясно 
+25.5 +9 35 +26  1013.9  0.1  722  265           
00 25.07.12 040 (СВ) >10 км    ясно 
+23.4 +6.6 34 +23  1014.8  0.4  723  267           
03 25.07.12 070 (В) >10 км    ясно 
+22.1 +10.2 47 +24  1015.8  0.8  723  268           
06 25.07.12 090 (В) >10 км    ясно 
+25.5 +15 52 +35  1016  0.9  724  264  +21.6         
09 25.07.12 090 (В) >10 км    ясно 
+30.4 +13.8 36 +38  1014.9  -0.3  724  260           
12 25.07.12 100 (В) >10 км    ясно 
+32.1 +12.1 29 +37  1013.5  -1  723  258           
15 25.07.12 070 (В) >10 км    ясно 
+30.2 +9.6 28 +32  1013.5  -0.3  723  261    +32.4       
18 25.07.12 070 (В) >10 км    ясно 
+24.6 +6.5 31 +25  1015.3  0.7  723  266    +32.4       
21 25.07.12 080 (В) >10 км    ясно 
+22.1 +6.5 36 +22  1015.2  -0.5  723  268           
00 26.07.12 070 (В) >10 км    ясно 
+19.9 +9.5 51 +21  1014.8  -0.7  722  270           
03 26.07.12 100 (В) >10 км    3/0 верхняя 
[Ci fib]
+20.3 +15 72 +30  1015  0.4  723  268           
06 26.07.12 120 (ЮВ) >10 км    ясно 
+25.9 +9.8 36 +28  1013.7  -0.5  722  264  +17.9         
09 26.07.12 120 (ЮВ) 10  >10 км    ясно 
+29 +10.3 31 +31  1012.3  -0.8  722  261           
12 26.07.12 120 (ЮВ) >10 км    ясно 
+30.2 +10.2 29 +32  1010.9  -1.2  721  260           
15 26.07.12 120 (ЮВ) >10 км    ясно 
+28.9 +10.2 31 +31  1010.1  -1  720  261    +30.5       
18 26.07.12 100 (В) >10 км    ясно 
+24.5 +10.1 40 +27  1010.9  0.1  720  264    +30.5       
21 26.07.12 120 (ЮВ) >10 км    ясно 
+21.7 +12.7 57 +28  1010.7  -0.6  720  266           
00 27.07.12 110 (В) >10 км    ясно 
+18.8 +12.2 65 +24  1011  -0.2  720  269           
03 27.07.12 110 (В) >10 км    ясно 
+17.9 +13.3 74 +25  1011.2  720  269           
06 27.07.12 110 (В) 13  >10 км    3/1 600 м верхняя 
[Cu hum|Ci fib]
+23.8 +13.5 52 +31  1010.3  0.1  720  264  +17.7         
09 27.07.12 120 (ЮВ) 10  >10 км    ясно 
+27.9 +11.6 36 +32  1008.8  -0.8  719  261           
12 27.07.12 130 (ЮВ) 10  >10 км    3/0 средняя 
[Ac trans]
+30 +9.5 28 +31  1007.6  -0.8  719  259           
15 27.07.12 110 (В) >10 км    3/0 средняя 
[Ac trans]
+28.5 +8.3 28 +29  1007.5  -0.3  718  261    +30.2       
18 27.07.12 100 (В) >10 км    3/0 средняя 
[Ac trans]
+24.2 +9.2 39 +25  1008.3  0.1  718  264    +30.2       
21 27.07.12 110 (В) >10 км    ясно 
+20.7 +9.7 49 +22  1008.7  -0.2  718  267           
00 28.07.12 120 (ЮВ) >10 км    ясно 
+17.7 +11 65 +21  1008.7  -0.5  718  270           
03 28.07.12 100 (В) >10 км    3/0 средняя 
[Ac trans]
+17.6 +14.5 82 +27  1009.4  -0.5  718  269           
06 28.07.12 110 (В) >10 км    3/0 средняя 
[Ac trans]
+23.8 +14.9 57 +33  1009.1  0.8  719  263  +16.5         
09 28.07.12 120 (ЮВ) 10  >10 км    4/0 средняя 
[Ac trans]
+28.6 +12 36 +33  1008  -0.3  719  260           
12 28.07.12 110 (В) >10 км    8/0 верхняя 
[Ci fib]
+29.1 +8.4 27 +29  1007.3  -0.6  718  260           
15 28.07.12 110 (В) >10 км    9/0 верхняя 
[Ci fib]
+28.5 +8.4 28 +29  1007.1  -0.3  718  261    +30.4       
18 28.07.12 100 (В) >10 км    8/0 средняя, верхняя 
[Ac trans|Ci fib]
+25.7 +9.5 36 +27  1008.3  0.7  719  263    +30.4       
21 28.07.12 110 (В) >10 км    ясно 
+22.1 +11.7 52 +27  1008.5  -0.4  718  265           
00 29.07.12 110 (В) >10 км    4/0 верхняя 
[Ci fib]
+20.4 +13.8 66 +28  1008.7  718  266           
03 29.07.12 080 (В) >10 км    8/3 600 м кучево-дожд., средняя, верхняя 
[Cb calv|Ac trans|Ci fib]
+19.4 +13 66 +26  1010.1  1.1  719  268           
06 29.07.12 070 (В) >10 км    8/4 600 м кучево-дожд., средняя 
[Cb calv|Ac trans]
+21.3 +12.6 58 +27  1010.4  1.1  719  266  +19.1         
09 29.07.12 110 (В) >10 км    8/0 средняя, верхняя 
[Ac trans|Ci fib]
+27.8 +7.3 27 +28  1010.2  0.8  720  262           
12 29.07.12 110 (В) >10 км    9/3 1000 м кучево-дожд., средняя 
[Cb calv|Ac trans]
+28.7 +8.6 28 +29  1009.6  -0.4  720  261           
15 29.07.12 180 (Ю) >10 км    10/4 1000 м кучево-дожд., средняя 
[Cb calv|Ac und]
+24.5 +11.9 45 +29  1010.4  0.1  720  264    +28.8       
18 29.07.12 130 (ЮВ) >10 км    8/0 средняя, верхняя 
[Ac trans|Ci fib]
+21.1 +12.4 58 +27  1011.1  -0.1  720  267    +28.8       
21 29.07.12 090 (В) >10 км    10/4 1000 м кучево-дожд., средняя 
[Cb calv|Ac und]
+22.1 +12.3 54 +27  1011.1  0.2  720  266           
00 30.07.12 060 (СВ) >10 км    3/0 средняя 
[Ac trans]
+19.5 +11.4 59 +24  1010.9  -0.7  720  268           
03 30.07.12 070 (В) >10 км    8/0 средняя, верхняя 
[Ac trans|Ci fib]
+19.3 +10.2 56 +21  1011.6  0.6  720  269           
06 30.07.12 100 (В) >10 км    6/0 средняя, верхняя 
[Ac trans|Ci fib]
+24.4 +10.9 43 +28  1011.9  1.1  721  265  +18.2         
09 30.07.12 090 (В) 10  >10 км    8/3 600 м кучево-дожд., средняя 
[Cb calv|Ac trans]
+26.6 +5.8 26 +27  1012.2  0.7  721  264           
12 30.07.12 120 (ЮВ) 10  >10 км    8/1 1000 м кучево-дожд., средняя 
[Cb calv|Ac trans]
+28 +6.5 26 +28  1010.6  -1.3  720  262           
15 30.07.12 140 (ЮВ) >10 км  слаб. ливневой дождь  8/4 1000 м кучево-дожд., средняя 
[Cb cap|Ac trans]
+21.9 +15.5 67 +33  1012  0.5  721  266    +28.1       
18 30.07.12 090 (В) >10 км  {ливн. осадки}  8/4 1000 м кучево-дожд., средняя 
[Cb calv|Ac trans]
+22.2 +12 52 +27  1012  721  266    +28.1  0.0     
21 30.07.12 090 (В) >10 км    8/4 1000 м кучево-дожд., средняя 
[Cb calv|Ac und]
+21 +5.3 36 +21  1012.2  0.1  721  269           
00 31.07.12 100 (В) >10 км    5/0 средняя 
[Ac trans]
+18 +13.8 76 +26  1012.4  -0.2  720  269           
03 31.07.12 110 (В) >10 км    8/0 средняя 
[Ac trans]
+18.3 +12 67 +23  1012.8  0.5  721  270           
06 31.07.12 120 (ЮВ) 11  >10 км    8/3 1000 м кучево-дожд., средняя 
[Cb calv|Ac trans]
+20.6 +8.5 46 +21  1013  0.5  721  269  +17.7    0.0     
09 31.07.12 120 (ЮВ) 11  >10 км    8/0 средняя 
[Ac trans]
+25.5 +5.2 27 +26  1011.7  -0.5  721  265           
12 31.07.12 110 (В) 10  >10 км    8/3 1000 м кучево-дожд., средняя 
[Cb calv|Ac trans]
+25.8 +6.2 29 +26  1010.8  -0.8  720  264           
15 31.07.12 110 (В) >10 км    6/0 средняя 
[Ac trans]
+25.4 +5.8 28 +25  1009.7  -1.1  719  264    +27.4       
18 31.07.12 110 (В) >10 км    5/0 средняя 
[Ac trans]
+21.1 +8.5 44 +21  1011  0.6  720  268    +27.4       
21 31.07.12 110 (В) >10 км    5/0 средняя, верхняя 
[Ac trans|Ci fib]
+18.8 +10.4 58 +22  1010.8  -0.5  719  269           
00 01.08.12 100 (В) >10 км    4/0 средняя 
[Ac trans]
+16.8 +11.1 69 +21  1010.8  -0.4  719  271           
03 01.08.12 110 (В) >10 км    4/0 средняя, верхняя 
[Ac trans|Ci fib]
+16.2 +11.5 74 +20  1011.5  0.6  720  271           
Время (UTC), дата Ветер
(°,м/с) 
Видим.   Явления Облачность Т
(°С)
Тd
(°С)
f(%) Тe
(°С)
Pmin
(гПа)
dP
(гПа)
Po
(мм)
O2
(г/м3)
Тmin Tmax R s Состояние
почвы